International Skating Union - Official Site

ESSENT ISU WORLD ALLROUND CHAMPIONSHIPS 2012
February 18-19, 2012

Draw | Lap Times | Index | Classification

Referee: Tapani  POTKA  (FIN)
Starter: Hans  TERSTAPPEN  (CAN)
StartTime: EndTime: Air Temp: Ice Temp: Humidity:
16:18 17:26 15℃ -5.8℃ 35%
Result 3000m Ladies
Rankings as of Feb 18 2012 5:41PM
Rank: No.: Name: Nation: Time: Behind: Points:
1 6 Martina  SÁBLIKOVÁ CZE CZE 4:01.80200m - 20.59 - (20.5)
600m - 51.77 - (31.1)
1000m - 1:22.89 - (31.1)
1400m - 1:54.50 - (31.6)
1800m - 2:26.10 - (31.5)
2200m - 2:58.22 - (32.1)
2600m - 3:29.73 - (31.5)
3000m - 4:01.80 - (32.0)
40.300
2 18 Ireen  WÜST NED NED 4:02.69200m - 20.27 - (20.2)
600m - 51.36 - (31.0)
1000m - 1:22.72 - (31.3)
1400m - 1:54.43 - (31.7)
1800m - 2:26.43 - (32.0)
2200m - 2:58.13 - (31.6)
2600m - 3:30.17 - (32.0)
3000m - 4:02.69 - (32.5)
0.89 40.448
3 17 Linda  de VRIES NED NED 4:07.06200m - 20.12 - (20.1)
600m - 51.56 - (31.4)
1000m - 1:23.52 - (31.9)
1400m - 1:55.45 - (31.9)
1800m - 2:28.04 - (32.5)
2200m - 3:00.69 - (32.6)
2600m - 3:33.65 - (32.9)
3000m - 4:07.06 - (33.4)
5.26 41.176
4 9 Claudia  PECHSTEIN GER GER 4:07.14200m - 20.48 - (20.4)
600m - 51.73 - (31.2)
1000m - 1:23.77 - (32.0)
1400m - 1:56.01 - (32.2)
1800m - 2:28.48 - (32.4)
2200m - 3:00.98 - (32.5)
2600m - 3:34.03 - (33.0)
3000m - 4:07.14 - (33.0)
5.34 41.190
5 2 Cindy  KLASSEN CAN CAN 4:07.50200m - 20.17 - (20.1)
600m - 51.59 - (31.4)
1000m - 1:23.77 - (32.1)
1400m - 1:55.88 - (32.1)
1800m - 2:28.01 - (32.1)
2200m - 3:00.44 - (32.4)
2600m - 3:33.41 - (32.9)
3000m - 4:07.50 - (34.0)
5.70 41.250
6 3 Christine  NESBITT CAN CAN 4:09.55200m - 20.15 - (20.1)
600m - 51.62 - (31.4)
1000m - 1:23.38 - (31.7)
1400m - 1:55.87 - (32.4)
1800m - 2:28.06 - (32.1)
2200m - 3:00.90 - (32.8)
2600m - 3:34.17 - (33.2)
3000m - 4:09.55 - (35.3)
7.75 41.591
7 4 Brittany  SCHUSSLER CAN CAN 4:09.82200m - 20.60 - (20.6)
600m - 51.96 - (31.3)
1000m - 1:23.78 - (31.8)
1400m - 1:56.07 - (32.2)
1800m - 2:28.71 - (32.6)
2200m - 3:01.90 - (33.1)
2600m - 3:35.52 - (33.6)
3000m - 4:09.82 - (34.2)
8.02 41.636
8 21 Ida  NJÅTUN NOR NOR 4:11.02200m - 20.12 - (20.1)
600m - 51.66 - (31.5)
1000m - 1:24.13 - (32.4)
1400m - 1:56.81 - (32.6)
1800m - 2:29.51 - (32.6)
2200m - 3:02.72 - (33.2)
2600m - 3:36.57 - (33.8)
3000m - 4:11.02 - (34.4)
9.22 41.836
9 14 Do-Yeong  PARK KOR KOR 4:11.91200m - 20.66 - (20.6)
600m - 53.31 - (32.6)
1000m - 1:25.62 - (32.3)
1400m - 1:58.65 - (33.0)
1800m - 2:31.38 - (32.7)
2200m - 3:04.78 - (33.4)
2600m - 3:38.20 - (33.4)
3000m - 4:11.91 - (33.7)
10.11 41.985
10 32 Jilleanne  ROOKARD USA USA 4:12.22200m - 20.63 - (20.6)
600m - 52.29 - (31.6)
1000m - 1:24.37 - (32.0)
1400m - 1:57.36 - (32.9)
1800m - 2:30.50 - (33.1)
2200m - 3:04.26 - (33.7)
2600m - 3:37.99 - (33.7)
3000m - 4:12.22 - (34.2)
10.42 42.036
11 16 Jorien  VOORHUIS NED NED 4:12.47200m - 20.37 - (20.3)
600m - 52.28 - (31.9)
1000m - 1:25.04 - (32.7)
1400m - 1:57.81 - (32.7)
1800m - 2:31.03 - (33.2)
2200m - 3:04.34 - (33.3)
2600m - 3:38.43 - (34.0)
3000m - 4:12.47 - (34.0)
10.67 42.078
12 23 Natalia  CZERWONKA POL POL 4:12.77200m - 20.31 - (20.3)
600m - 51.73 - (31.4)
1000m - 1:23.65 - (31.9)
1400m - 1:56.29 - (32.6)
1800m - 2:29.42 - (33.1)
2200m - 3:02.93 - (33.5)
2600m - 3:37.28 - (34.3)
3000m - 4:12.77 - (35.4)
10.97 42.128
13 27 Yekaterina  LOBYSHEVA RUS RUS 4:13.39200m - 20.33 - (20.3)
600m - 52.61 - (32.2)
1000m - 1:25.48 - (32.8)
1400m - 1:58.44 - (32.9)
1800m - 2:31.41 - (32.9)
2200m - 3:04.49 - (33.0)
2600m - 3:38.35 - (33.8)
3000m - 4:13.39 - (35.0)
11.59 42.231
14 12 Ayaka  KIKUCHI JPN JPN 4:13.64200m - 20.61 - (20.6)
600m - 52.03 - (31.4)
1000m - 1:24.06 - (32.0)
1400m - 1:57.06 - (33.0)
1800m - 2:30.74 - (33.6)
2200m - 3:04.89 - (34.1)
2600m - 3:39.34 - (34.4)
3000m - 4:13.64 - (34.2)
11.84 42.273
15 8 Isabell  OST GER GER 4:13.66200m - 20.73 - (20.7)
600m - 52.93 - (32.2)
1000m - 1:25.56 - (32.6)
1400m - 1:58.52 - (32.9)
1800m - 2:31.67 - (33.1)
2200m - 3:04.99 - (33.3)
2600m - 3:39.14 - (34.1)
3000m - 4:13.66 - (34.5)
11.86 42.276
16 11 Shiho  ISHIZAWA JPN JPN 4:14.40200m - 20.65 - (20.6)
600m - 52.81 - (32.1)
1000m - 1:25.50 - (32.6)
1400m - 1:58.57 - (33.0)
1800m - 2:32.23 - (33.6)
2200m - 3:06.15 - (33.9)
2600m - 3:40.27 - (34.1)
3000m - 4:14.40 - (34.1)
12.60 42.400
17 13 Miho  TAKAGI JPN JPN 4:14.92200m - 20.57 - (20.5)
600m - 51.95 - (31.3)
1000m - 1:24.56 - (32.6)
1400m - 1:58.04 - (33.4)
1800m - 2:31.69 - (33.6)
2200m - 3:05.84 - (34.1)
2600m - 3:40.15 - (34.3)
3000m - 4:14.92 - (34.7)
13.12 42.486
18 15 Marrit  LEENSTRA NED NED 4:15.33200m - 20.63 - (20.6)
600m - 53.29 - (32.6)
1000m - 1:26.16 - (32.8)
1400m - 1:59.70 - (33.5)
1800m - 2:33.59 - (33.8)
2200m - 3:07.64 - (34.0)
2600m - 3:41.39 - (33.7)
3000m - 4:15.33 - (33.9)
13.53 42.555
19 20 Hege  BØKKO NOR NOR 4:15.36200m - 19.83 - (19.8)
600m - 50.80 - (30.9)
1000m - 1:22.85 - (32.0)
1400m - 1:55.96 - (33.1)
1800m - 2:29.59 - (33.6)
2200m - 3:04.24 - (34.6)
2600m - 3:39.48 - (35.2)
3000m - 4:15.36 - (35.8)
13.56 42.560
20 26 Olga  GRAF RUS RUS 4:15.84200m - 21.52 - (21.5)
600m - 53.23 - (31.7)
1000m - 1:25.54 - (32.3)
1400m - 1:58.47 - (32.9)
1800m - 2:33.29 - (34.8)
2200m - 3:07.50 - (34.2)
2600m - 3:41.40 - (33.9)
3000m - 4:15.83 - (34.4)
14.04 42.640
21 24 Katarzyna  WOZNIAK POL POL 4:16.04200m - 21.21 - (21.2)
600m - 53.65 - (32.4)
1000m - 1:26.21 - (32.5)
1400m - 1:59.00 - (32.7)
1800m - 2:32.39 - (33.3)
2200m - 3:06.34 - (33.9)
2600m - 3:40.74 - (34.4)
3000m - 4:16.04 - (35.2)
14.24 42.673
22 1 Nicole  GARRIDO CAN CAN 4:16.66200m - 20.61 - (20.6)
600m - 52.20 - (31.5)
1000m - 1:24.47 - (32.2)
1400m - 1:57.88 - (33.4)
1800m - 2:31.67 - (33.7)
2200m - 3:06.13 - (34.4)
2600m - 3:41.10 - (34.9)
3000m - 4:16.66 - (35.5)
14.86 42.776
23 28 Yuliya  SKOKOVA RUS RUS 4:18.48200m - 20.71 - (20.7)
600m - 53.60 - (32.8)
1000m - 1:26.43 - (32.8)
1400m - 1:59.53 - (33.0)
1800m - 2:33.01 - (33.4)
2200m - 3:07.28 - (34.2)
2600m - 3:42.26 - (34.9)
3000m - 4:18.48 - (36.2)
16.68 43.080
24 31 Maria  LAMB USA USA 4:28.54200m - 21.44 - (21.4)
600m - 55.82 - (34.3)
1000m - 1:31.15 - (35.3)
1400m - 2:06.54 - (35.3)
1800m - 2:41.62 - (35.0)
2200m - 3:17.18 - (35.5)
2600m - 3:52.54 - (35.3)
3000m - 4:28.53 - (35.9)
26.74 44.756